AirNav   TITAN Aviation Fuels
 
 1439 users online  

6AZ8 Flying Diamond Airport
Tucson, Arizona, USA

GOING TO TUCSON?


FAA INFORMATION EFFECTIVE 02 DECEMBER 2021

Location

FAA Identifier: 6AZ8
Lat/Long: 31-56-28.0000N 111-07-13.0000W
31-56.466667N 111-07.216667W
31.9411111,-111.1202778
(estimated)
Elevation: 3800 ft. / 1158 m (estimated)
Variation: 12E (1995)
From city: 15 miles SW of TUCSON, AZ
Time zone: UTC -7 (year round; does not observe DST)
Zip code: 85629

Airport Operations

Airport use: Private use. Permission required prior to landing
Activation date: 03/2000
Control tower: no
ARTCC: ALBUQUERQUE CENTER
FSS: PRESCOTT FLIGHT SERVICE STATION
Attendance: UNATNDD
Wind indicator: yes
Segmented circle: no

Airport Communications

WX AWOS-3 at RYN (12 nm N): 133.35 (520-578-0269)
WX ASOS at TUS (14 nm NE): PHONE 520-295-5727

Nearby radio navigation aids

VOR radial/distance  VOR name  Freq  Var
TUSr217/14.0TUCSON VORTAC116.0012E
OLSr324/34.5NOGALES VOR/DME108.2012E

 
NDB name  Hdg/Dist  Freq  Var  ID
RYAN158/12.033812ERYN .-. -.-- -.
ROBLES111/14.622012ERBJ .-. -... .---
MARANA158/28.724512EAVQ .- ...- --.-

Airport Services

Runway Information

Runway 7/25

Dimensions: 2650 x 35 ft. / 808 x 11 m
Surface: asphalt
RUNWAY 7  RUNWAY 25
Traffic pattern: leftleft
Obstructions: none100 ft. pline, 1000 ft. from runway

Airport Ownership and Management from official FAA records

Ownership: Privately-owned
Owner: FLYING DIAMOND AIRPARK LLC
P.O. BOX 1056
TUCSON, AZ 85629
Phone 520-399-3877
Manager: LOU COOK
1040 WEST CALLE SANTIAGO
SAHUARITA, AZ 85629
Phone 520-399-3877
CELL 520-403-9865

Airport Operational Statistics

Aircraft based on the field: 11
Single engine airplanes: 10
Helicopters: 1
    

Additional Remarks

FOR CD CTC TUCSON APCH AT 520-829-6121.

Instrument Procedures

There are no published instrument procedures at 6AZ8.

Some nearby airports with instrument procedures:

KRYN - Ryan Field Airport (12 nm N)
KTUS - Tucson International Airport (14 nm NE)
KDMA - Davis Monthan Air Force Base (18 nm NE)
KAVQ - Marana Regional Airport (29 nm N)
KOLS - Nogales International Airport (34 nm SE)
 
Loc | Ops | Rwys | IFR | FBO | Links
Com | Nav | Svcs | Stats | Notes
Area around 6AZ8 (Flying Diamond Airport)
 
Road maps at: MapQuest Bing Google
 
Aerial photo
WARNING: Photo may not be current or correct
Aerial photo of 6AZ8 (Flying Diamond Airport)
Do you have a better or more recent aerial photo of Flying Diamond Airport that you would like to share? If so, please send us your photo.

 
Sectional chart

 
Airport distance calculator
Flying to Flying Diamond Airport? Find the distance to fly.

From to 6AZ8

Sunrise and sunset
Times for 03-Dec-2021
 Local
(UTC-7)
 Zulu
(UTC)
Morning civil twilight06:4313:43
Sunrise07:1014:10
Sunset17:1900:19
Evening civil twilight17:4600:46

Current date and time
Zulu (UTC)  03-Dec-2021 18:58:10
Local (UTC-7)  03-Dec-2021 11:58:10
 
METAR
KRYN 
12nm N 
031845Z 00000KT 10SM CLR 22/01 A3007
KTUS 
14nm NE 
031853Z 00000KT 10SM CLR 23/03 A3009 RMK AO2 SLP161 T02280028 $
KDMA 
19nm NE 
031758Z AUTO 13004KT 10SM CLR 20/03 A3010 RMK AO2 SLP167 T02030026 10203 20093 58001 $
TAF
KTUS 
14nm NE 
031724Z 0318/0418 VRB03KT P6SM SKC FM041500 13004KT P6SM FEW250
KDMA 
19nm NE 
031400Z 0314/0420 VRB06KT 9999 SKC QNH3003INS BECMG 0320/0321 32006KT 9999 SKC QNH3003INS BECMG 0405/0406 17006KT 9999 SKC QNH3007INS TX25/0321Z TN09/0413Z
NOTAMs
Click for the latest NOTAMs
NOTAMs are issued by the DoD/FAA and will open in a separate window not controlled by AirNav.

 

 
 

Would you like to see your business listed on this page?

 If your business provides an interesting product or service to pilots, flight crews, aircraft, or users of the Flying Diamond Airport, you should consider listing it here.  To start the listing process, click on the button below
 
Add a business
 

Other Pages about Flying Diamond Airport

www.fdairpark.com
 
Update a link
 
Copyright © AirNav, LLC. All rights reserved. Privacy Policy  Contact